Volver al catálogo

FENGYUN 1C DEB

ActivoSSO
NORAD 31639·DEBRIS·🇨🇳 China

Lanzado May 10, 1999 desde Taiyuan Satellite Launch Center

Loading…

Próximos Pases (próximas 24 horas)

TLE

ActualizadoSource: Space-Track

Época: Sep 12, 2026, 01:29 UTC

1 31639U 99025CAV 26255.06223589  .00000078  00000-0  92702-4 0  9991
2 31639  98.7658 188.1096 0161825 122.8941 302.6945 13.85263477974724

Sigue FENGYUN 1C DEB en tiempo real con AllMySat

Download on the App Store